When you browse on this site, cookies collect data to enhance your experience and personalize the content and advertising you see.
Visit our Privacy Policy to learn more. By continuing to use the site, you agree to this use of cookies and data.
  • Em Portugal
  • Lista de países
  • Para 7 dias
  • Temperatura da água
  • Mapas de satélite
  • Mapa do tempo
  • Widgets de tempo
  • user-avatar
    Iniciar Sessão

    Previsão horária em Kornilovo

    Hoje, 26 Abril, Sexta-feira

    Tempo Temperatura Precipitação Vento Pressão Humidade
    00:00 +12°C° 0 mm 0 m/s 749 mmHg 52%
    01:00 +12°C° 0 mm 0 m/s 749 mmHg 53%
    02:00 +12°C° 0 mm 0 m/s 748 mmHg 53%
    03:00 +11°C° 0 mm 0 m/s 748 mmHg 54%
    04:00 +12°C° 0 mm 1 m/s 748 mmHg 55%
    05:00 +12°C° 0 mm 1 m/s 748 mmHg 56%
    06:00 +14°C° 0 mm 1 m/s 748 mmHg 52%
    07:00 +16°C° 0 mm 1 m/s 748 mmHg 48%
    08:00 +19°C° 0 mm 1 m/s 748 mmHg 44%
    09:00 +21°C° 0 mm 1 m/s 748 mmHg 39%
    10:00 +21°C° 0 mm 2 m/s 748 mmHg 34%
    11:00 +24°C° 0 mm 2 m/s 748 mmHg 30%
    12:00 +24°C° 0 mm 2 m/s 748 mmHg 29%
    13:00 +24°C° 0 mm 2 m/s 747 mmHg 29%
    14:00 +25°C° 0 mm 3 m/s 747 mmHg 28%
    15:00 +24°C° 0 mm 2 m/s 747 mmHg 30%
    16:00 +24°C° 0 mm 2 m/s 746 mmHg 32%
    17:00 +23°C° 0 mm 2 m/s 746 mmHg 33%
    18:00 +20°C° 0 mm 2 m/s 746 mmHg 40%
    19:00 +18°C° 0 mm 2 m/s 746 mmHg 46%
    20:00 +16°C° 0 mm 1 m/s 745 mmHg 52%
    21:00 +15°C° 0 mm 1 m/s 745 mmHg 55%
    22:00 +14°C° 0 mm 1 m/s 745 mmHg 58%
    23:00 +13°C° 0 mm 1 m/s 745 mmHg 60%

    Amanhã, 27 Abril, Sábado

    Tempo Temperatura Precipitação Vento Pressão Humidade
    00:00 +13°C° 0 mm 1 m/s 745 mmHg 63%
    01:00 +13°C° 0 mm 2 m/s 744 mmHg 65%
    02:00 +12°C° 0 mm 2 m/s 744 mmHg 68%
    03:00 +12°C° 0 mm 2 m/s 744 mmHg 69%
    04:00 +12°C° 0 mm 2 m/s 743 mmHg 70%
    05:00 +10°C° 0 mm 2 m/s 743 mmHg 72%
    06:00 +13°C° 0 mm 2 m/s 743 mmHg 66%
    07:00 +15°C° 0 mm 2 m/s 743 mmHg 60%
    08:00 +16°C° 0 mm 2 m/s 742 mmHg 54%
    09:00 +18°C° 0 mm 2 m/s 742 mmHg 48%
    10:00 +20°C° 0 mm 2 m/s 742 mmHg 42%
    11:00 +23°C° 0 mm 2 m/s 741 mmHg 36%
    12:00 +23°C° 0 mm 2 m/s 741 mmHg 35%
    13:00 +24°C° 0 mm 2 m/s 741 mmHg 34%
    14:00 +25°C° 0 mm 2 m/s 740 mmHg 34%
    15:00 +24°C° 0 mm 2 m/s 740 mmHg 38%
    16:00 +23°C° 0 mm 1 m/s 740 mmHg 42%
    17:00 +22°C° 0 mm 1 m/s 739 mmHg 46%
    18:00 +21°C° 0 mm 1 m/s 739 mmHg 52%
    19:00 +18°C° 0 mm 2 m/s 739 mmHg 57%
    20:00 +16°C° 0 mm 2 m/s 739 mmHg 63%
    21:00 +15°C° 0.4 mm 2 m/s 740 mmHg 70%
    22:00 +14°C° 0.4 mm 2 m/s 740 mmHg 77%
    23:00 +13°C° 0.4 mm 2 m/s 740 mmHg 84%

    Depois de amanhã, 28 Abril, Domingo

    Tempo Temperatura Precipitação Vento Pressão Humidade
    00:00 +13°C° 0 mm 2 m/s 740 mmHg 85%
    01:00 +11°C° 0 mm 3 m/s 741 mmHg 87%
    02:00 +11°C° 0 mm 3 m/s 741 mmHg 88%
    03:00 +10°C° 0 mm 4 m/s 741 mmHg 87%
    04:00 +8°C° 0 mm 4 m/s 742 mmHg 86%
    05:00 +8°C° 0 mm 5 m/s 742 mmHg 85%
    06:00 +8°C° 0 mm 5 m/s 743 mmHg 81%
    07:00 +8°C° 0 mm 5 m/s 744 mmHg 76%
    08:00 +8°C° 0 mm 5 m/s 745 mmHg 72%
    09:00 +8°C° 0 mm 5 m/s 746 mmHg 66%
    10:00 +8°C° 0 mm 5 m/s 746 mmHg 61%
    11:00 +8°C° 0 mm 4 m/s 747 mmHg 56%
    12:00 +9°C° 0 mm 5 m/s 747 mmHg 48%
    13:00 +10°C° 0 mm 5 m/s 747 mmHg 40%
    14:00 +12°C° 0 mm 5 m/s 747 mmHg 32%
    15:00 +12°C° 0 mm 5 m/s 747 mmHg 32%
    16:00 +10°C° 0 mm 5 m/s 747 mmHg 32%
    17:00 +11°C° 0 mm 4 m/s 748 mmHg 32%
    18:00 +8°C° 0 mm 4 m/s 748 mmHg 36%
    19:00 +7°C° 0 mm 3 m/s 749 mmHg 41%
    20:00 +6°C° 0 mm 2 m/s 749 mmHg 45%
    21:00 +5°C° 0 mm 2 m/s 750 mmHg 49%
    22:00 +4°C° 0 mm 2 m/s 750 mmHg 52%
    23:00 +3°C° 0 mm 2 m/s 751 mmHg 56%

    29 Abril, Segunda-feira

    Tempo Temperatura Precipitação Vento Pressão Humidade
    00:00 +3°C° 0 mm 2 m/s 751 mmHg 58%
    01:00 +2°C° 0 mm 2 m/s 751 mmHg 61%
    02:00 +1°C° 0 mm 2 m/s 751 mmHg 64%
    03:00 +1°C° 0 mm 2 m/s 751 mmHg 64%
    04:00 +1°C° 0 mm 2 m/s 752 mmHg 64%
    05:00 +1°C° 0 mm 2 m/s 752 mmHg 63%
    06:00 +1°C° 0 mm 3 m/s 752 mmHg 56%
    07:00 +3°C° 0 mm 3 m/s 752 mmHg 49%
    08:00 +4°C° 0 mm 3 m/s 752 mmHg 42%
    09:00 +7°C° 0 mm 3 m/s 752 mmHg 39%
    10:00 +8°C° 0 mm 3 m/s 752 mmHg 35%
    11:00 +9°C° 0 mm 2 m/s 752 mmHg 32%
    12:00 +10°C° 0 mm 2 m/s 752 mmHg 30%
    13:00 +12°C° 0 mm 2 m/s 751 mmHg 28%
    14:00 +13°C° 0 mm 2 m/s 751 mmHg 26%
    15:00 +12°C° 0 mm 2 m/s 751 mmHg 27%
    16:00 +12°C° 0 mm 2 m/s 750 mmHg 27%
    17:00 +12°C° 0 mm 2 m/s 750 mmHg 28%
    18:00 +9°C° 0 mm 2 m/s 750 mmHg 34%
    19:00 +8°C° 0 mm 1 m/s 750 mmHg 40%
    20:00 +6°C° 0 mm 1 m/s 750 mmHg 45%
    21:00 +6°C° 0 mm 1 m/s 750 mmHg 48%
    22:00 +5°C° 0 mm 1 m/s 750 mmHg 50%
    23:00 +4°C° 0 mm 1 m/s 750 mmHg 53%

    30 Abril, Terça-feira

    Tempo Temperatura Precipitação Vento Pressão Humidade
    00:00 +4°C° 0 mm 1 m/s 749 mmHg 54%
    01:00 +3°C° 0 mm 1 m/s 749 mmHg 55%
    02:00 +3°C° 0 mm 1 m/s 749 mmHg 57%
    03:00 +3°C° 0 mm 1 m/s 749 mmHg 57%
    04:00 +3°C° 0 mm 1 m/s 749 mmHg 57%
    05:00 +2°C° 0 mm 1 m/s 749 mmHg 57%
    06:00 +5°C° 0 mm 1 m/s 749 mmHg 50%
    07:00 +8°C° 0 mm 1 m/s 748 mmHg 44%
    08:00 +9°C° 0 mm 0 m/s 748 mmHg 37%
    09:00 +11°C° 0 mm 0 m/s 748 mmHg 34%
    10:00 +12°C° 0 mm 0 m/s 748 mmHg 31%
    11:00 +15°C° 0 mm 1 m/s 748 mmHg 28%
    12:00 +15°C° 0 mm 1 m/s 747 mmHg 28%
    13:00 +15°C° 0 mm 1 m/s 747 mmHg 28%
    14:00 +15°C° 0 mm 1 m/s 746 mmHg 27%
    15:00 +14°C° 0 mm 1 m/s 746 mmHg 29%
    16:00 +14°C° 0 mm 1 m/s 746 mmHg 30%
    17:00 +13°C° 0 mm 1 m/s 745 mmHg 32%
    18:00 +12°C° 0 mm 1 m/s 745 mmHg 37%
    19:00 +10°C° 0 mm 1 m/s 745 mmHg 42%
    20:00 +9°C° 0 mm 1 m/s 745 mmHg 47%
    21:00 +8°C° 0 mm 1 m/s 745 mmHg 50%
    22:00 +7°C° 0 mm 1 m/s 745 mmHg 53%
    23:00 +6°C° 0 mm 1 m/s 745 mmHg 55%

    1 Maio, Quarta-feira

    Tempo Temperatura Precipitação Vento Pressão Humidade
    00:00 +6°C° 0 mm 1 m/s 745 mmHg 55%
    01:00 +6°C° 0 mm 1 m/s 745 mmHg 55%
    02:00 +6°C° 0 mm 1 m/s 745 mmHg 55%
    03:00 +6°C° 0 mm 1 m/s 744 mmHg 55%
    04:00 +6°C° 0 mm 1 m/s 744 mmHg 55%
    05:00 +6°C° 0 mm 1 m/s 744 mmHg 55%
    06:00 +8°C° 0 mm 1 m/s 744 mmHg 51%
    07:00 +9°C° 0 mm 1 m/s 743 mmHg 47%
    08:00 +11°C° 0 mm 1 m/s 743 mmHg 42%
    09:00 +12°C° 0 mm 1 m/s 743 mmHg 38%
    10:00 +13°C° 0 mm 2 m/s 742 mmHg 35%
    11:00 +14°C° 0 mm 2 m/s 742 mmHg 31%
    12:00 +14°C° 0 mm 2 m/s 741 mmHg 31%
    13:00 +14°C° 0 mm 2 m/s 741 mmHg 31%
    14:00 +15°C° 0 mm 2 m/s 740 mmHg 31%
    15:00 +14°C° 0 mm 2 m/s 740 mmHg 32%
    16:00 +14°C° 0 mm 2 m/s 739 mmHg 33%
    17:00 +14°C° 0 mm 2 m/s 739 mmHg 35%
    18:00 +12°C° 0 mm 2 m/s 739 mmHg 40%
    19:00 +10°C° 0 mm 2 m/s 738 mmHg 45%
    20:00 +10°C° 0 mm 1 m/s 738 mmHg 51%
    21:00 +8°C° 0 mm 2 m/s 737 mmHg 53%
    22:00 +8°C° 0 mm 2 m/s 737 mmHg 56%
    23:00 +8°C° 0 mm 3 m/s 737 mmHg 59%
    Mostrar mais